Tracking 18852 objects as of 23-Nov-2017
HD Live streaming from Space Station
objects crossing your sky now

COSMOS 2125

Track COSMOS 2125 now!
10-day predictions
COSMOS 2125 is classified as:


NORAD ID: 21100
Int'l Code: 1991-009A
Perigee: 1,463.8 km
Apogee: 1,480.1 km
Inclination: 74.0 °
Period: 115.2 minutes
Semi major axis: 7842 km
RCS: 0.6918 m2 (medium)
Launch date: February 12, 1991
Source: Commonwealth of Independent States (former USSR) (CIS)
Launch site: PLESETSK MISSILE AND SPACE COMPLEX (PKMTR)
aabbcc
Your satellite tracking list
Your tracking list is empty




NASA's NSSDC Master Catalog

Two Line Element Set (TLE):
1 21100U 91009A   17326.60949227 -.00000023 +00000-0 -45458-4 0  9998
2 21100 074.0270 157.4443 0010369 223.1071 192.8935 12.49919420221811
Source of the keplerian elements: AFSPC